GFSMW_prec_cloud_195.txt.gz
Cloud_Cover
100 5 0 5 100 100 5 11 94 100 62 96 95 100 100 35 100 86 96 99 100 100 100 5 90 91 10 100 96 100 74 46 20 2 5 78 89 100 100 68 5 5 2
100 22 75 99 100 93 8 4 28 82 36 90 70 52 7 14 84 55 98 100 100 100 55 34 4 85 100 89 47 100 100 82 29 5 5 57 100 93 100 100 46 2 0
100 81 100 100 100 50 38 1 7 25 24 21 18 80 91 100 99 88 75 99 85 84 87 56 48 95 100 60 6 64 99 100 4 38 17 29 100 99 41 100 6 5 0
100 100 100 100 100 66 8 3 21 19 26 54 5 9 5 18 48 50 85 100 100 54 99 100 95 100 100 78 6 40 24 100 14 7 5 24 73 5 51 100 100 5 0
100 100 100 100 100 94 60 86 51 94 27 95 12 5 5 3 5 5 5 5 5 40 100 100 100 100 100 96 26 32 8 86 11 31 28 68 67 86 100 100 100 100 70
86 98 86 70 88 92 100 100 94 96 100 18 5 5 5 5 5 7 5 23 43 5 84 71 68 100 100 100 29 6 41 30 5 31 12 7 86 90 100 100 89 94 91
96 100 95 94 100 98 100 100 100 100 87 41 8 5 5 5 8 5 5 24 5 7 5 31 22 100 100 30 8 89 6 77 33 6 5 5 7 88 100 73 77 74 54
16 92 100 100 97 67 99 100 100 100 76 34 29 7 6 4 5 5 5 5 5 6 27 5 65 100 32 40 7 71 50 34 5 5 5 5 5 5 48 99 96 99 66
95 46 28 26 62 93 80 100 77 100 100 10 97 37 10 2 5 11 6 5 15 56 9 5 5 99 96 2 66 18 4 5 2 84 100 75 75 5 15 5 63 99 85
26 96 74 77 70 17 26 26 98 100 100 100 100 56 5 10 0 5 47 36 52 99 55 98 79 56 20 0 2 4 4 5 5 10 100 100 98 79 99 97 7 56 12
0 4 2 5 4 46 50 52 90 99 100 100 86 71 5 50 6 5 8 69 7 50 51 61 95 14 2 4 41 18 0 0 8 5 100 100 100 100 100 70 14 10 4
0 5 0 0 0 0 26 100 100 99 95 100 78 59 5 96 16 5 17 23 45 5 34 86 68 85 36 100 100 95 3 5 95 99 82 99 100 41 100 100 100 100 27
0 6 87 3 5 1 2 5 90 100 100 100 86 89 59 5 5 5 5 5 6 5 5 97 71 75 57 100 100 100 72 39 100 100 95 97 55 5 38 100 38 100 100
0 0 7 75 5 1 0 2 5 54 89 100 100 100 100 87 5 5 5 8 2 0 1 16 5 91 43 48 99 100 58 66 5 5 28 85 70 5 70 89 92 13 80
2 1 1 5 5 1 0 0 0 5 97 100 100 100 100 59 96 36 62 5 2 5 1 9 47 59 4 9 98 100 76 5 3 5 5 5 5 6 48 100 57 84 100
0 5 5 5 5 15 5 5 0 8 16 100 100 100 100 94 90 66 100 19 2 12 0 31 75 100 5 7 99 100 100 72 100 20 43 100 29 44 6 5 5 15 44
0 0 5 5 6 94 99 17 8 7 8 87 100 100 100 100 89 99 98 82 6 5 1 7 100 99 3 53 43 89 98 100 98 16 13 7 5 5 5 13 27 57 10
0 2 0 15 98 48 83 100 26 4 11 15 64 100 100 100 100 100 100 97 35 22 5 5 78 72 49 86 93 91 97 100 100 98 13 16 5 2 4 5 97 60 17
0 1 0 2 99 98 24 22 96 74 5 5 5 60 100 100 100 100 93 99 96 100 100 10 5 6 71 43 50 20 5 15 6 5 5 68 100 5 6 0 8 10 8
6 1 0 5 0 70 91 6 97 100 83 24 10 5 100 100 27 51 94 86 100 100 100 100 5 99 100 100 100 100 100 100 100 100 100 85 36 80 100 12 22 47 7
7 26 5 0 0 5 5 4 17 26 100 33 73 78 46 98 19 2 72 11 83 100 100 100 99 93 100 62 100 100 100 82 100 100 100 99 99 100 100 100 8 33 32
0 0 1 1 0 1 19 65 49 4 10 96 98 90 95 47 67 28 73 64 31 95 89 100 100 100 100 100 100 100 100 94 100 100 100 100 100 100 100 100 100 100 91
0 0 0 0 0 0 0 32 94 100 98 100 100 99 47 66 96 80 67 99 72 22 45 100 100 100 95 95 100 100 100 100 91 100 100 100 100 100 100 100 100 100 66
90 4 0 0 0 0 2 0 100 33 100 100 100 82 96 72 98 100 99 97 100 78 6 19 99 100 100 100 100 100 100 100 100 100 100 100 100 100 92 86 46 41 34
40 58 5 2 0 0 0 14 100 100 100 100 100 100 96 81 100 96 92 100 80 39 7 5 74 100 100 100 97 100 100 100 100 100 98 100 100 93 100 100 27 0 0
94 100 100 31 0 0 0 4 16 100 100 100 100 95 25 18 99 100 100 100 100 100 100 98 100 100 100 100 100 100 100 100 100 90 100 100 95 77 100 98 24 0 0

GFSMW_prec_cloud_198.txt.gz
Cloud_Cover
21 81 0 40 51 5 100 29 27 50 20 76 100 100 100 96 100 99 71 71 68 96 72 30 27 100 99 14 90 42 100 71 50 5 5 41 100 100 92 0 2 0 5
23 100 14 1 5 88 100 26 43 80 10 26 58 92 99 100 91 98 70 77 55 100 92 100 94 23 5 67 100 5 83 100 43 11 5 48 73 100 100 90 1 12 1
90 100 7 0 28 100 100 83 46 40 20 28 69 73 80 97 90 90 100 93 61 36 70 100 97 50 54 50 100 31 5 50 100 5 14 63 100 100 96 93 5 4 3
100 100 96 96 100 100 100 100 100 69 49 40 67 96 42 67 95 96 100 100 77 74 98 94 98 100 81 100 100 52 46 22 100 5 4 89 100 100 96 56 3 0 0
100 100 100 100 100 100 100 84 93 86 56 70 44 46 57 8 46 22 69 95 96 96 100 100 96 100 100 33 37 96 26 39 100 8 1 43 15 38 90 100 100 28 2
100 100 100 100 100 100 100 100 100 100 100 95 62 35 49 28 16 51 20 6 74 8 5 100 100 100 100 100 100 100 41 26 90 8 1 8 29 100 80 100 100 100 43
92 100 100 100 99 97 99 96 76 98 100 100 100 41 59 12 27 5 5 6 5 6 5 27 100 87 100 100 100 100 100 100 100 6 4 5 5 25 100 100 100 98 64
14 42 80 81 100 100 97 81 100 100 100 100 100 96 70 30 6 5 25 6 8 8 4 5 74 100 58 100 100 100 95 50 77 7 5 5 5 6 94 100 100 100 97
1 0 79 99 44 34 93 100 100 63 100 100 13 82 100 38 33 26 20 6 5 42 16 5 14 87 100 63 58 38 100 83 94 15 7 5 18 38 28 70 97 100 95
4 5 31 41 15 55 16 63 100 100 98 46 92 9 9 5 11 19 9 28 21 13 5 30 6 56 84 96 5 32 59 77 100 69 35 66 94 80 76 100 65 98 99
0 0 0 1 5 11 96 36 5 29 93 23 33 86 100 88 37 26 13 5 8 5 5 100 100 98 38 39 5 84 78 13 95 36 89 100 100 93 70 99 10 22 27
0 0 0 0 0 0 1 13 100 97 49 42 72 47 5 5 68 62 17 5 5 5 5 66 99 35 95 99 0 71 15 10 5 20 30 100 100 100 100 100 100 6 5
3 0 0 0 3 1 4 0 0 13 99 99 100 79 5 5 6 93 97 56 5 5 5 5 5 37 94 71 15 22 86 11 6 47 24 96 100 100 100 100 100 100 100
0 2 0 0 0 6 12 3 5 1 5 45 100 100 31 43 26 5 37 95 5 14 5 4 32 21 36 32 99 55 100 100 77 100 99 98 100 100 99 100 100 100 91
0 0 2 2 5 21 13 36 29 22 16 1 5 96 100 100 72 84 13 58 8 66 0 2 12 37 94 100 100 100 100 86 100 100 100 100 100 100 68 32 98 25 83
0 0 0 0 0 6 64 60 66 65 54 45 8 6 100 100 100 100 58 27 7 99 3 5 5 5 5 92 60 100 100 86 84 48 86 87 86 99 100 100 100 100 98
0 0 0 0 0 5 89 51 57 70 99 82 86 57 30 100 100 99 100 62 6 96 5 5 0 25 10 5 5 53 100 91 38 6 5 5 5 5 46 91 99 100 81
0 0 0 0 0 1 7 99 97 84 60 100 100 100 95 100 100 100 100 57 98 51 12 4 4 24 6 71 5 79 100 42 8 25 5 5 19 41 83 43 24 60 66
0 0 0 0 0 0 0 92 100 98 93 90 100 100 100 98 100 100 100 96 100 96 67 4 5 5 76 86 3 14 100 71 5 8 42 19 12 21 16 11 40 49 21
0 0 0 0 0 0 0 56 100 83 99 83 93 19 99 100 100 100 100 100 100 83 89 4 51 5 6 100 34 49 98 100 100 100 98 71 32 61 56 5 46 32 35
0 0 0 0 0 0 0 2 96 100 100 80 7 66 60 94 100 100 100 100 99 82 100 69 100 87 58 9 100 100 8 7 42 87 87 94 100 100 100 96 5 6 15
0 0 0 0 0 0 0 0 3 87 91 99 62 100 100 89 94 100 100 88 100 100 46 98 84 100 100 96 100 100 100 95 76 60 100 100 100 100 100 74 6 100 80
2 34 61 13 5 5 0 0 0 1 8 29 100 100 57 96 100 99 100 100 91 82 42 64 40 43 79 100 100 100 100 100 31 100 100 100 100 100 76 98 98 97 10
29 67 100 92 44 7 5 0 0 0 0 46 28 96 44 100 99 78 93 82 35 20 5 10 14 100 99 100 100 93 68 90 81 82 94 99 98 95 77 66 42 18 94
79 100 100 100 100 99 100 14 0 0 0 1 5 63 97 100 51 64 45 61 71 87 74 27 59 98 100 100 100 26 15 6 7 52 100 100 100 100 100 100 100 97 16
93 89 87 97 82 90 29 34 70 0 0 0 0 5 20 100 100 98 90 86 92 100 100 100 85 39 86 100 100 100 94 100 95 38 64 100 100 100 100 90 96 77 57

GFSMW_prec_cloud_201.txt.gz
Cloud_Cover
100 100 100 77 98 95 100 100 20 12 83 89 100 100 99 100 92 95 91 100 83 99 91 80 71 98 100 100 99 100 11 98 5 76 88 100 89 100 100 77 50 5 7
90 100 100 100 100 86 42 94 64 27 38 100 33 87 100 99 74 100 100 100 86 100 92 81 77 100 100 73 96 100 93 82 46 70 90 86 62 100 100 56 100 46 12
85 95 99 100 80 49 82 100 45 40 28 81 98 55 92 100 100 90 98 100 73 39 78 62 99 100 100 45 84 100 100 100 69 71 18 73 91 100 98 8 99 43 84
98 95 97 70 46 4 100 100 77 21 37 53 68 98 78 25 91 98 100 25 74 15 49 57 34 63 89 94 90 100 100 90 93 100 5 5 97 76 100 95 97 0 100
100 100 100 100 100 64 100 100 100 100 10 100 22 28 26 100 100 100 100 100 98 100 100 88 96 100 100 100 48 100 100 100 70 98 48 16 55 43 100 100 100 16 100
98 100 100 100 100 100 100 100 41 92 76 34 53 30 32 99 100 78 72 12 95 91 78 88 100 100 100 100 100 49 59 100 100 91 72 92 62 49 98 99 75 82 49
100 100 100 100 100 100 100 100 100 94 99 100 100 95 17 17 99 69 100 98 100 55 5 8 5 49 100 100 100 93 97 100 100 100 77 3 47 100 100 100 100 100 100
79 100 100 100 100 96 93 100 100 100 74 100 100 100 100 55 96 24 97 100 100 44 5 1 5 54 100 100 98 100 76 100 100 100 71 17 37 52 100 100 100 100 100
14 6 96 100 100 100 100 100 68 8 70 100 100 100 100 100 100 100 16 100 76 100 5 3 3 5 100 5 4 100 100 100 100 100 75 21 32 53 83 100 100 99 97
0 0 7 48 58 76 100 100 100 100 91 87 99 100 100 8 100 72 68 95 100 48 100 13 6 5 32 100 94 77 100 95 99 100 44 5 5 100 35 62 100 87 96
4 4 0 0 0 8 32 31 14 34 100 100 100 100 100 97 61 53 11 5 81 80 28 8 5 6 16 100 80 31 43 93 54 100 73 6 5 76 97 75 63 51 99
0 0 0 0 0 2 10 26 4 5 9 20 100 100 100 67 100 100 100 80 6 80 28 6 5 99 92 100 89 27 10 100 44 88 70 26 5 85 100 86 65 94 46
0 0 0 0 3 27 27 26 47 16 17 19 18 16 5 89 55 71 99 77 25 43 34 8 9 8 5 44 100 100 51 50 63 41 76 83 97 13 100 100 81 99 96
0 0 0 4 35 42 71 87 54 62 11 28 36 24 65 68 98 19 48 23 15 91 85 5 5 5 5 21 89 62 76 6 29 34 62 82 60 50 37 100 100 84 100
0 0 0 0 14 29 58 100 100 100 75 42 27 26 15 17 100 95 8 45 96 99 97 13 49 5 17 17 66 24 64 100 99 59 71 33 16 20 63 36 100 74 100
0 0 0 0 0 0 12 5 59 99 100 100 98 78 54 11 5 62 96 50 50 73 100 5 57 0 5 5 21 52 100 74 100 100 52 13 100 60 42 28 87 88 97
0 0 0 0 0 0 45 79 21 1 31 100 100 100 82 17 0 10 87 99 95 86 100 28 99 17 2 5 59 100 84 79 73 53 99 100 99 90 50 9 5 5 15
0 0 0 0 0 0 0 0 91 60 6 72 46 100 100 95 31 15 6 100 60 100 100 35 15 57 0 5 4 86 50 70 85 72 100 100 86 27 93 5 4 4 5
0 0 0 0 0 0 0 0 0 41 97 5 66 68 100 100 100 97 2 35 100 82 38 57 6 47 2 0 5 5 5 5 99 40 100 68 5 4 2 97 5 84 49
0 0 0 0 0 0 0 0 0 0 4 89 12 100 100 100 100 100 24 2 96 100 5 50 5 5 5 5 5 5 51 5 52 98 52 5 12 100 89 75 100 5 23
0 0 0 0 1 1 0 0 0 0 0 27 52 100 100 100 37 96 100 1 14 61 18 5 5 5 5 5 5 11 5 3 94 100 100 60 74 98 98 94 100 99 38
0 5 5 2 9 1 9 0 0 0 0 0 28 68 83 29 99 100 100 86 14 5 15 61 6 30 5 13 29 66 99 4 5 99 96 100 100 100 100 100 100 100 80
0 0 75 100 58 17 96 94 85 1 0 0 0 0 0 22 100 99 100 100 100 97 30 5 23 2 5 3 28 92 52 100 91 100 100 100 100 100 100 100 100 100 30
57 17 52 87 71 8 56 43 100 100 10 26 0 0 0 80 100 100 100 100 100 100 85 5 7 4 5 3 6 42 100 83 100 68 31 92 92 100 100 100 100 100 100
46 82 93 66 72 54 63 14 100 100 93 5 0 0 1 95 62 100 100 100 100 100 100 100 56 100 84 37 83 16 98 100 88 87 40 45 49 93 100 93 95 88 28
88 70 6 56 49 5 82 2 87 100 100 50 3 0 0 5 100 100 100 100 100 100 100 100 98 89 70 36 79 1 5 82 98 50 89 75 74 58 94 100 96 49 81

GFSMW_prec_cloud_204.txt.gz
Cloud_Cover
99 16 0 0 0 0 64 73 82 52 4 100 97 100 100 100 52 17 100 100 100 100 86 87 90 100 81 100 100 100 100 100 100 100 100 100 56 100 12 2 41 2 85
100 75 0 24 1 0 0 13 93 2 5 20 100 100 100 29 92 87 100 89 100 97 37 27 86 100 80 96 100 84 100 100 100 100 100 100 79 100 98 99 44 74 5
98 60 7 3 71 21 5 5 40 0 8 100 100 100 100 98 78 30 38 100 94 92 5 75 100 100 100 100 56 56 100 100 49 100 100 100 100 100 94 22 50 92 51
100 5 3 34 67 100 4 66 46 1 8 72 100 100 22 5 5 10 97 94 100 16 5 15 87 100 38 87 67 26 89 91 100 46 79 100 100 100 100 100 65 23 99
74 42 94 100 100 9 7 79 100 66 6 1 5 98 3 5 5 37 15 100 69 6 63 5 5 39 7 25 93 37 95 93 67 100 100 39 100 33 100 100 100 79 5
100 100 99 100 59 100 99 70 100 100 18 4 7 9 92 5 38 17 5 5 31 99 20 6 100 99 78 86 36 100 70 41 5 49 55 100 100 100 100 100 100 100 44
96 49 81 78 56 98 100 100 100 100 65 3 0 0 5 46 46 26 52 9 6 4 5 28 32 66 66 52 97 23 5 4 7 99 100 82 93 100 100 100 100 100 100
100 100 100 100 100 100 100 100 100 100 100 35 6 93 99 86 44 5 40 78 4 75 17 4 0 0 3 5 45 98 98 10 5 5 2 5 34 100 100 100 100 100 100
84 100 100 100 26 95 100 100 100 100 100 100 100 35 100 100 100 100 89 82 9 75 100 87 100 25 3 3 2 89 5 5 3 5 5 5 3 8 100 100 100 100 100
0 0 16 85 100 100 70 15 44 89 84 44 60 25 100 100 100 100 100 79 5 91 100 100 100 100 82 13 1 21 2 7 5 4 4 6 5 28 100 75 100 100 100
0 0 0 1 63 99 79 5 5 37 39 44 70 57 45 100 100 100 20 5 0 82 100 100 100 100 100 62 5 5 5 7 96 5 1 5 0 2 37 100 96 100 100
0 0 0 0 0 8 100 99 49 28 83 29 14 5 43 86 100 100 100 5 0 83 100 100 100 100 100 92 63 50 100 97 5 5 86 99 3 0 1 8 79 96 59
0 0 0 0 0 0 0 0 83 98 15 1 25 12 4 5 54 100 99 95 56 5 82 100 100 100 57 90 99 58 97 99 8 56 100 99 9 0 5 15 8 7 5
0 0 0 0 0 0 2 0 0 41 100 96 100 18 0 0 0 15 34 53 68 90 36 59 80 40 92 88 6 6 51 86 72 97 100 84 50 2 5 31 39 16 30
0 0 0 0 0 0 0 0 0 1 81 100 98 100 84 2 32 26 0 5 5 10 100 28 21 5 5 5 5 5 75 55 8 4 5 0 6 6 5 5 53 52 78
0 0 0 0 0 0 0 0 0 0 26 100 100 100 100 98 52 39 38 0 4 5 5 79 96 5 5 5 0 3 31 100 10 98 100 12 7 18 3 5 5 32 93
0 0 0 0 0 0 0 0 0 0 0 0 11 94 100 72 77 88 33 4 21 4 5 7 96 63 1 0 0 3 0 4 5 12 10 12 5 0 49 10 0 4 25
0 0 0 0 0 0 0 0 0 0 0 2 2 2 9 95 86 5 75 61 5 5 1 1 14 80 41 1 5 0 0 4 5 5 5 5 5 4 5 5 3 0 0
0 0 0 0 0 0 0 0 0 0 0 0 4 86 27 5 13 27 6 13 29 5 7 2 0 47 15 5 2 0 0 0 5 5 5 3 6 5 2 5 5 5 5
0 0 0 0 0 0 0 0 0 0 0 0 0 0 0 6 65 54 21 18 100 72 38 2 0 3 4 0 0 0 0 0 0 4 7 6 96 100 51 5 88 95 7
0 0 0 2 9 3 13 6 27 21 0 0 0 0 0 0 0 74 31 82 100 100 100 21 34 0 0 0 0 0 0 0 0 0 0 7 2 93 97 94 75 7 100
0 0 0 0 4 4 0 0 0 17 73 12 0 0 0 0 4 96 14 100 100 100 100 98 64 95 2 2 4 0 0 0 4 4 3 0 0 41 97 94 44 92 75
0 0 0 0 0 0 0 0 0 0 0 2 0 0 0 4 54 11 99 100 100 100 100 100 100 37 20 31 8 5 2 8 0 0 0 73 99 100 100 99 98 100 100
0 0 1 0 0 0 0 0 0 0 0 0 0 0 0 0 75 53 100 100 100 100 100 100 100 98 100 100 100 92 42 43 19 65 19 4 12 12 31 100 98 100 100
38 0 0 0 1 100 50 0 1 0 2 4 16 0 0 0 39 60 100 100 100 100 100 100 100 100 100 100 100 100 63 2 5 5 11 7 4 5 81 100 100 100 100
0 0 0 5 5 4 6 5 1 49 3 1 1 42 69 0 44 21 97 100 100 100 100 100 100 100 100 100 100 100 100 100 73 24 10 11 4 5 44 100 100 100 100

GFSMW_prec_cloud_210.txt.gz
Cloud_Cover
100 100 95 18 0 5 13 0 0 0 0 6 80 100 100 79 83 100 100 100 100 100 99 10 78 62 99 100 100 100 100 100 100 92 100 100 100 100 98 13 7 5 22
100 97 7 7 17 67 4 0 0 0 0 38 100 100 100 93 100 100 83 59 62 91 100 45 64 19 52 100 100 100 100 100 99 100 95 99 100 100 100 100 90 5 5
100 100 52 34 19 90 2 0 0 0 22 100 100 97 74 100 100 100 100 42 73 100 98 90 98 6 9 97 100 100 100 100 100 100 100 100 95 100 100 100 99 5 5
84 32 66 54 44 33 55 43 5 5 92 100 100 100 98 100 100 100 80 60 66 100 73 20 23 48 61 100 36 96 100 100 100 100 100 100 100 100 100 100 100 99 4
100 100 13 100 100 100 74 13 7 10 96 100 100 100 100 100 100 100 100 71 74 69 18 10 5 17 5 42 54 89 100 100 100 90 100 100 100 100 100 100 100 100 96
97 83 100 100 93 100 24 20 4 4 65 100 71 98 100 100 33 64 61 4 64 100 100 35 5 5 15 6 63 26 94 100 100 100 100 100 100 100 100 98 100 100 100
100 98 92 96 75 82 99 99 97 5 56 94 25 67 92 100 94 6 5 5 5 13 2 20 5 5 48 42 18 5 11 100 98 100 100 100 100 100 100 100 100 97 95
100 100 100 97 16 87 93 100 100 85 100 100 100 100 100 96 94 46 61 7 5 5 0 0 3 17 36 65 6 5 10 5 29 72 100 99 100 100 100 100 100 100 100
0 4 24 69 22 23 99 93 93 97 99 93 98 95 12 27 5 95 100 80 7 7 28 4 87 100 100 100 100 100 100 94 33 97 97 80 95 100 100 100 100 100 100
0 0 3 90 100 74 100 91 94 5 8 5 55 73 91 70 80 65 32 36 5 5 5 69 100 100 94 36 84 100 100 100 31 61 100 70 54 100 99 100 100 100 100
10 57 5 0 19 87 51 48 4 5 9 66 46 16 2 0 2 71 44 4 1 4 5 97 100 100 96 100 21 96 48 100 90 100 100 50 6 100 24 100 100 100 96
3 0 4 7 3 5 4 0 2 97 84 99 69 29 50 3 0 0 4 0 0 0 0 71 100 100 41 100 100 100 77 24 96 68 17 80 6 5 5 84 100 100 96
5 5 5 4 0 0 2 43 8 5 21 76 100 38 13 10 10 1 0 0 0 0 0 5 72 100 100 100 99 100 84 100 84 39 5 5 5 5 5 5 56 83 60
1 0 5 10 5 5 5 3 0 1 6 7 1 98 100 94 100 100 100 94 48 5 0 4 8 86 100 100 98 100 96 6 12 5 5 5 5 5 4 5 1 5 5
54 2 5 2 0 0 0 2 5 0 0 2 1 1 8 50 37 100 100 100 100 100 79 2 6 46 95 45 100 100 100 50 9 5 5 5 5 5 5 6 42 5 3
94 2 5 5 4 0 0 0 0 0 5 0 0 0 0 83 71 24 100 100 100 100 100 68 3 0 24 8 43 53 86 93 5 5 5 10 9 5 53 12 5 7 5
2 5 5 12 5 5 2 0 0 0 0 0 0 0 0 0 0 0 34 100 100 100 100 100 66 2 0 1 38 74 83 5 5 5 42 5 28 5 5 5 32 100 32
5 5 5 0 0 0 0 0 0 0 0 0 0 0 0 0 0 0 0 0 29 95 100 100 99 20 1 0 1 5 5 5 5 5 5 5 86 5 5 5 44 97 99
1 1 3 5 0 0 0 0 0 0 0 0 0 0 0 0 0 0 0 0 0 7 2 85 100 62 19 0 0 0 5 5 5 5 0 1 5 76 33 5 7 31 11
0 0 0 0 0 0 0 0 0 0 0 0 0 0 0 0 0 0 0 0 0 0 0 0 13 95 22 99 82 35 3 5 5 4 0 0 0 5 66 12 5 23 13
0 0 0 0 0 0 0 0 0 0 0 0 0 0 0 0 0 0 0 0 2 24 10 0 5 17 100 100 100 90 84 53 43 91 85 19 0 3 6 2 3 40 22
0 0 0 0 0 0 0 0 0 0 0 0 0 0 0 0 0 0 0 4 18 25 21 26 27 31 96 100 100 100 100 100 100 98 100 100 100 60 0 14 2 0 20
4 0 0 0 0 0 0 0 0 0 0 0 0 0 0 0 0 0 0 0 32 34 20 13 2 0 100 100 100 100 100 100 100 100 100 100 100 7 0 0 0 36 78
5 5 1 0 0 0 0 0 0 0 0 0 0 0 0 0 0 2 5 3 5 67 79 38 16 2 100 100 100 100 100 100 100 100 100 100 100 100 100 81 59 26 8
5 0 0 0 0 0 0 0 0 0 22 23 10 1 0 0 0 8 5 20 1 0 1 18 0 3 12 92 30 100 100 100 100 100 100 100 100 100 100 100 74 100 82
0 0 0 0 2 0 0 3 0 30 25 65 100 55 4 2 18 98 100 95 3 0 42 9 0 6 13 4 44 100 100 100 100 100 100 100 100 100 100 100 100 99 91

GFSMW_prec_cloud_216.txt.gz
Cloud_Cover
100 100 100 100 31 27 97 100 28 98 37 57 61 67 100 99 90 93 100 100 100 68 100 98 88 100 100 100 100 100 100 94 49 98 93 16 9 44 100 100 15 26 5
100 100 100 100 100 100 59 40 94 66 10 47 26 81 95 100 100 76 100 100 100 91 86 100 100 27 69 100 100 98 100 61 90 95 100 27 88 99 93 100 81 5 5
100 100 100 100 100 56 5 41 48 85 8 80 100 97 100 76 80 96 100 95 100 98 100 59 60 18 92 58 100 100 87 100 66 48 37 8 84 100 100 100 100 3 4
7 88 89 79 96 97 5 5 80 83 5 90 64 98 55 19 30 97 98 90 61 96 85 93 49 43 71 43 23 99 32 26 96 90 10 5 95 89 47 80 100 89 0
4 5 6 20 5 68 93 88 91 75 45 94 10 68 92 5 28 7 61 54 32 9 6 57 88 9 12 7 9 39 75 100 100 51 42 6 48 100 100 99 96 99 96
36 27 5 5 8 5 57 9 8 84 60 10 96 56 6 9 5 20 48 16 39 99 100 5 5 21 46 43 5 5 12 8 92 84 100 81 52 100 100 100 70 38 84
84 65 73 100 96 60 100 99 58 43 5 5 43 60 4 5 5 7 16 23 7 23 5 5 10 8 52 45 7 5 5 6 34 51 97 100 96 84 100 100 86 98 74
64 51 86 10 68 46 64 24 6 5 45 8 11 32 5 5 79 10 89 18 83 55 21 5 5 4 0 5 5 5 5 5 5 8 99 100 100 90 100 99 75 23 77
1 0 0 4 4 1 5 93 97 44 10 100 56 55 90 4 25 5 19 16 27 88 100 89 8 5 5 68 100 68 10 7 5 5 4 23 100 100 100 87 43 28 9
0 0 1 5 5 38 82 27 5 7 80 95 100 74 91 77 27 100 100 95 8 5 35 49 87 28 34 6 88 96 100 74 75 58 45 76 92 17 46 81 53 78 40
5 4 0 3 5 7 20 4 11 14 60 85 100 66 100 100 100 100 100 100 100 97 4 5 4 5 5 5 5 22 42 93 100 88 31 100 55 78 24 23 94 100 8
100 83 78 5 5 1 1 1 5 86 97 100 71 100 100 100 100 100 100 100 100 61 5 24 0 2 3 0 6 3 5 6 19 48 100 100 74 20 5 11 5 19 100
100 100 100 24 5 8 10 3 2 0 6 39 62 93 100 100 100 100 100 100 100 90 6 8 6 5 4 0 0 0 2 4 5 5 22 100 98 74 5 4 7 1 8
12 93 100 66 5 6 68 99 71 22 3 0 3 5 66 100 100 100 100 100 100 99 100 97 11 5 5 8 1 0 0 5 5 7 8 33 99 94 71 5 4 5 3
61 91 100 11 6 92 50 5 5 27 47 18 4 0 1 4 5 8 65 51 60 83 92 100 100 80 5 4 3 0 0 0 4 22 6 38 75 73 100 19 13 1 2
100 69 100 100 100 100 100 21 6 5 5 1 4 5 5 5 3 0 2 43 58 38 38 34 84 71 100 6 5 3 2 2 0 5 5 5 5 8 6 90 50 7 4
97 100 100 100 99 100 100 100 90 5 9 4 4 0 0 0 0 2 0 0 0 0 24 41 39 43 48 50 25 5 14 7 9 5 2 5 5 5 22 10 8 41 16
87 65 26 12 79 100 100 100 94 100 100 81 5 0 0 0 0 0 0 0 0 0 0 7 39 40 29 25 28 30 100 100 100 100 100 23 5 5 5 5 5 3 6
56 79 92 93 82 27 66 7 0 1 2 6 3 0 0 0 0 0 0 0 0 0 0 0 0 3 0 30 40 45 99 100 100 100 94 74 6 5 5 34 5 5 3
83 90 98 69 5 1 0 0 0 0 0 0 0 0 0 0 0 0 0 0 0 0 0 0 0 0 0 21 10 43 98 100 100 100 100 97 91 29 15 100 84 100 5
62 86 40 5 0 0 2 0 0 0 0 0 0 0 0 0 0 0 0 0 0 0 0 0 0 0 11 1 100 99 71 74 100 100 100 100 100 100 100 89 89 100 92
99 17 0 5 0 0 0 0 1 0 0 1 8 22 26 21 5 8 2 0 0 1 2 0 0 0 0 91 99 100 100 74 100 100 100 99 86 100 100 84 100 66 100
4 3 2 0 0 0 0 38 4 14 40 74 98 98 100 100 83 52 80 96 60 54 23 34 27 0 0 4 100 100 100 87 62 33 95 54 99 100 100 100 96 97 93
0 0 0 1 8 0 0 36 33 77 100 100 100 100 100 99 96 100 84 89 100 100 100 92 97 61 15 13 10 99 100 98 100 98 13 18 96 100 100 100 100 76 100
0 3 39 47 32 26 94 100 99 100 100 100 100 100 100 100 74 89 100 100 100 99 99 80 48 58 76 5 2 23 93 100 85 75 94 30 76 100 100 100 97 100 100
20 29 11 88 100 100 100 100 100 100 100 100 100 100 100 100 100 100 100 100 100 99 78 46 67 17 75 40 36 73 100 99 99 100 100 76 91 100 100 100 77 97 92

GFSMW_prec_cloud_219.txt.gz
Cloud_Cover
100 99 100 74 100 98 61 100 100 100 30 95 96 95 100 58 48 52 65 100 100 100 65 94 92 59 100 100 100 100 26 20 27 100 57 20 100 100 100 73 32 5 0
85 73 100 100 100 100 100 100 99 44 12 39 51 60 93 66 82 97 90 100 100 100 91 70 100 100 100 100 54 64 43 58 56 54 93 60 100 100 91 84 21 5 5
96 97 100 100 100 100 100 44 56 8 21 92 97 65 62 48 24 24 79 67 62 100 100 100 100 99 12 78 100 97 99 100 24 78 98 58 99 100 48 100 83 5 18
100 100 100 100 100 100 92 95 47 7 23 100 86 94 95 63 95 98 77 100 54 99 86 6 5 5 5 5 27 100 87 73 38 88 94 9 57 63 99 96 96 87 5
4 48 100 49 5 7 2 17 58 5 28 36 9 97 5 5 97 22 72 5 32 82 99 77 7 33 5 30 41 29 84 100 100 100 30 7 39 29 99 90 96 79 68
0 4 6 5 5 5 4 17 29 6 59 91 47 5 8 59 10 92 100 62 69 82 100 100 79 100 75 58 37 5 41 24 96 100 46 92 100 81 36 100 90 92 15
67 4 19 78 100 47 16 41 83 5 28 5 22 96 89 39 80 72 26 6 12 13 17 30 51 5 82 49 12 5 2 20 5 59 5 5 96 35 80 94 78 5 5
34 100 100 96 5 45 10 99 100 5 5 5 5 8 9 72 76 100 94 97 73 11 46 97 12 44 14 6 6 5 9 4 5 5 5 5 9 100 41 17 16 20 5
0 45 24 7 5 5 29 100 100 90 46 5 6 51 100 100 100 80 61 98 100 100 28 10 100 20 5 11 5 46 5 5 3 0 3 4 5 28 59 91 50 13 45
0 0 1 0 5 20 6 100 100 5 5 51 100 100 100 100 100 100 100 100 100 100 100 94 1 4 5 5 5 0 28 44 5 5 4 4 5 11 87 46 50 5 5
6 9 5 0 0 6 28 3 1 5 4 2 48 100 100 100 100 100 100 100 100 100 100 100 85 5 2 3 0 2 0 3 42 31 45 3 4 17 43 25 5 29 6
8 100 99 52 0 0 0 0 5 5 5 13 17 100 100 100 100 100 100 100 20 6 4 5 39 74 70 1 0 0 0 5 5 6 58 34 7 8 6 3 3 5 5
28 35 100 100 26 0 0 0 0 2 17 64 96 100 100 100 100 100 100 100 32 87 91 81 5 58 20 34 5 1 0 0 0 5 63 33 36 31 75 8 5 6 81
100 100 100 77 100 92 9 0 0 0 4 42 98 97 72 100 100 100 100 100 100 100 100 100 94 100 95 33 5 4 5 2 0 0 1 5 8 23 5 5 5 4 7
100 100 100 10 100 38 26 11 5 5 3 5 4 20 92 100 99 99 100 100 100 100 100 100 53 58 40 6 63 13 5 5 1 0 0 5 20 5 8 5 5 2 2
100 99 38 96 5 4 5 79 100 100 46 5 5 5 5 61 87 86 60 87 92 96 20 5 5 53 71 24 28 35 42 13 5 0 0 0 47 9 6 6 5 5 6
98 100 96 97 88 10 5 7 5 5 5 4 1 5 5 5 5 4 16 86 88 71 12 8 5 3 4 23 29 50 66 51 50 36 3 5 2 5 5 8 97 13 5
100 100 100 100 94 60 96 100 88 51 46 39 21 8 5 1 1 0 0 0 0 0 0 0 1 0 0 2 17 9 16 61 91 86 56 39 16 5 5 5 6 7 6
100 100 100 100 100 100 100 96 44 82 100 79 94 82 94 65 2 0 0 0 0 0 0 0 0 0 0 0 19 48 19 87 34 28 79 94 61 98 100 81 54 5 5
94 100 100 100 100 100 100 97 99 97 100 97 41 27 23 16 5 1 0 0 2 0 0 0 0 0 0 0 0 51 0 16 2 60 100 78 96 100 100 100 100 100 98
60 99 100 100 100 91 44 5 5 5 22 37 56 65 65 64 61 60 60 52 31 34 14 13 7 13 0 0 24 84 3 0 0 0 20 47 39 100 100 100 100 100 81
68 96 37 35 2 13 0 4 16 60 99 100 100 100 98 96 76 100 68 100 99 100 63 56 27 0 27 29 39 100 87 6 0 8 0 5 96 100 100 100 100 100 100
5 5 5 5 26 54 44 43 100 98 99 100 100 100 100 100 100 95 99 99 100 100 100 98 66 26 8 16 62 99 100 100 91 0 1 99 94 89 100 100 100 100 100
3 1 0 1 27 51 83 100 100 100 100 100 100 100 99 79 100 77 68 94 100 100 100 100 100 100 51 16 35 34 66 90 100 26 51 88 100 100 100 100 100 78 100
7 5 5 13 45 100 97 100 100 100 100 100 73 84 87 93 97 61 51 91 100 99 100 100 100 100 99 23 83 36 72 70 40 32 100 100 100 100 90 100 74 100 100
5 5 12 25 44 94 91 99 100 100 100 100 100 100 100 100 100 100 98 60 65 91 100 100 100 100 100 97 86 86 100 100 84 94 100 100 100 91 33 75 9 6 100